Weather History for LICZ - October, 2012

Change the Weather History Date:

Friday, October 5, 2012

  Actual Average Record
Temperature  
Mean Temperature 67 °F -  
Max Temperature 82 °F 75 °F 86 °F (2001)
Min Temperature 52 °F 55 °F 52 °F (2012)
Cooling Degree Days 2    
Growing Degree Days 17 (Base 50)    
Moisture  
Dew Point 58 °F    
Average Humidity 74    
Maximum Humidity 100    
Minimum Humidity 20    
Precipitation  
Precipitation 0.00 in 0.09 in - ()
Sea Level Pressure  
Sea Level Pressure 30.09 in    
Wind  
Wind Speed 5 mph ()    
Max Wind Speed 12 mph    
Max Gust Speed -    
Visibility 7.8 miles    
Events      
Averages and records for this station are not official NWS values.
T = Trace of Precipitation, MM = Missing Value Source: Averaged Metar Reports

Daily Weather History Graph

Daily Weather History Graph

Search for Another Location

Airport or City:

Trip Planner

Search our weather history database for the weather conditions in past years. The results will help you decide how hot, cold, wet, or windy it might be!

Date:

Astronomy

Oct. 05, 2012 Rise Set
Actual Time 6:59 AM CEST 6:37 PM CEST
Civil Twilight 6:33 AM CEST 7:03 PM CEST
Nautical Twilight 6:03 AM CEST 7:33 PM CEST
Astronomical Twilight 5:32 AM CEST 8:03 PM CEST
Moon 9:52 PM CEST (10/5) 11:47 AM CEST (10/5)
Length of Visible Light 12h 29m
Length of Day
11h 37m
Waning Gibbous, 76% of the Moon is Illuminated
Oct 5
Waning Gibbous
Oct 8
Last Quarter
Oct 15
New
Oct 22
First Quarter
Oct 29
Full

Hourly Weather History & Observations

Time (CEST) Temp. Heat Index Dew Point Humidity Pressure Visibility Wind Dir Wind Speed Gust Speed Precip Events Conditions
12:55 AM 64.4 °F - 62.6 °F 94% 30.06 in - West 6.9 mph - N/A   Clear
1:55 AM 62.6 °F - 60.8 °F 94% 30.06 in - WNW 5.8 mph - N/A   Clear
2:00 AM 63 °F - 60 °F 87% 30.08 in 6 mi WNW 5.8 mph - -  
2:55 AM 60.8 °F - 60.8 °F 100% 30.06 in - West 8.1 mph - N/A   Clear
3:55 AM 59.0 °F - 59.0 °F 100% 30.04 in - West 4.6 mph - N/A   Clear
4:55 AM 55.4 °F - 55.4 °F 100% 30.04 in - SW 2.3 mph - N/A   Clear
5:00 AM 55 °F - 55 °F 100% 30.06 in 6 mi SW 2.3 mph - -  
5:55 AM 55.4 °F - 55.4 °F 100% 30.06 in - West 3.5 mph - N/A   Clear
6:55 AM 53.6 °F - 53.6 °F 100% 30.06 in - SW 2.3 mph - N/A   Clear
7:55 AM 55.4 °F - 55.4 °F 100% 30.09 in - West 3.5 mph - N/A   Clear
8:00 AM 55 °F - 55 °F 98% 30.10 in 7 mi West 3.5 mph - -  
8:55 AM 64.4 °F - 53.6 °F 68% 30.09 in - West 3.5 mph - N/A   Clear
9:55 AM 69.8 °F - 53.6 °F 56% 30.12 in - WNW 3.5 mph - N/A   Clear
10:55 AM 75.2 °F - 59.0 °F 57% 30.12 in - South 1.2 mph - N/A   Clear
11:00 AM 75 °F - 59 °F 48% 30.12 in 11 mi South 1.2 mph - -  
11:55 AM 80.6 °F 80.3 °F 53.6 °F 39% 30.12 in - SE 2.3 mph - N/A   Clear
12:55 PM 80.6 °F - 48.2 °F 32% 30.09 in - East 9.2 mph - N/A   Clear
1:55 PM 80.6 °F - 46.4 °F 30% 30.09 in - NE 5.8 mph - N/A   Clear
2:00 PM 81 °F - 47 °F 20% 30.10 in 12 mi NE 5.8 mph - -  
2:55 PM 80.6 °F - 48.2 °F 32% 30.06 in - ENE 9.2 mph - N/A   Clear
3:55 PM 78.8 °F - 50.0 °F 36% 30.06 in 6.2 mi ENE 11.5 mph - N/A   Partly Cloudy
4:55 PM 77.0 °F - 57.2 °F 50% 30.06 in 6.2 mi East 11.5 mph - N/A   Partly Cloudy
5:00 PM 77 °F - 58 °F 41% 30.08 in 12 mi East 11.5 mph - -   Scattered Clouds
5:55 PM 73.4 °F - 62.6 °F 69% 30.06 in 6.2 mi ENE 10.4 mph - N/A   Partly Cloudy
6:55 PM 71.6 °F - 64.4 °F 78% 30.09 in 6.2 mi ENE 9.2 mph - N/A   Partly Cloudy
7:55 PM 69.8 °F - 66.2 °F 88% 30.09 in 6.2 mi NE 5.8 mph - N/A   Partly Cloudy
8:00 PM 71 °F - 66 °F 79% 30.11 in 12 mi NE 5.8 mph - -   Scattered Clouds
8:55 PM 68.0 °F - 66.2 °F 94% 30.12 in 6.2 mi NNE 3.5 mph - N/A   Partly Cloudy
9:55 PM 66.2 °F - 64.4 °F 94% 30.12 in - Calm Calm - N/A   Clear
10:55 PM 64.4 °F - 64.4 °F 100% 30.12 in - West 4.6 mph - N/A   Clear
11:00 PM 64 °F - 64 °F 100% 30.14 in 6 mi West 4.6 mph - -  
11:55 PM 60.8 °F - 60.8 °F 100% 30.12 in - WSW 4.6 mph - N/A   Clear